Year,Month,Day,Hour,Minute,Value (Times are PST for temperature in C)
2006,12,12,14,02,9.70
2006,12,12,14,03,9.70
2006,12,12,14,04,9.60
2006,12,12,14,05,9.60
2006,12,12,14,06,9.60
2006,12,12,14,07,9.60
2006,12,12,14,08,9.50
2006,12,12,14,09,9.50
2006,12,12,14,10,9.40
2006,12,12,14,11,9.30
2006,12,12,14,12,9.30
2006,12,12,14,13,9.20
2006,12,12,14,14,9.20
2006,12,12,14,15,9.20
2006,12,12,14,16,9.10
2006,12,12,14,17,9.10
2006,12,12,14,18,9.00
2006,12,12,14,19,8.90
2006,12,12,14,20,8.90
2006,12,12,14,21,8.80
2006,12,12,14,22,8.80
2006,12,12,14,23,8.80
2006,12,12,14,24,8.70
2006,12,12,14,25,8.70
2006,12,12,14,26,8.70
2006,12,12,14,27,8.60
2006,12,12,14,28,8.50
2006,12,12,14,29,8.50
2006,12,12,14,30,8.40
2006,12,12,14,31,8.30
2006,12,12,14,32,8.30
2006,12,12,14,33,8.30
2006,12,12,14,34,8.30
2006,12,12,14,35,8.30
2006,12,12,14,36,8.20
2006,12,12,14,37,8.20
2006,12,12,14,38,8.20
2006,12,12,14,39,8.20
2006,12,12,14,40,8.20
2006,12,12,14,41,8.20
2006,12,12,14,42,8.20
2006,12,12,14,43,8.10
2006,12,12,14,44,8.10
2006,12,12,14,45,8.10
2006,12,12,14,46,8.10
2006,12,12,14,47,8.10
2006,12,12,14,48,8.10
2006,12,12,14,49,8.10
2006,12,12,14,50,8.10
2006,12,12,14,51,8.10
2006,12,12,14,52,8.10
2006,12,12,14,53,8.10
2006,12,12,14,54,8.10
2006,12,12,14,55,8.10
2006,12,12,14,56,8.10
2006,12,12,14,57,8.10
2006,12,12,14,58,8.10
2006,12,12,14,59,8.10
2006,12,12,15,00,8.10
2006,12,12,15,01,8.10
2006,12,12,15,02,8.10
2006,12,12,15,03,8.10
2006,12,12,15,04,8.10
2006,12,12,15,05,8.10
2006,12,12,15,06,8.10
2006,12,12,15,07,8.10
2006,12,12,15,08,8.00
2006,12,12,15,09,8.00
2006,12,12,15,10,8.00
2006,12,12,15,11,8.00
2006,12,12,15,12,8.00
2006,12,12,15,13,8.00
2006,12,12,15,14,8.00
2006,12,12,15,15,8.00
2006,12,12,15,16,8.00
2006,12,12,15,17,8.00
2006,12,12,15,18,7.90
2006,12,12,15,19,7.90
2006,12,12,15,20,7.90
2006,12,12,15,21,7.90
2006,12,12,15,22,7.90
2006,12,12,15,23,7.90
2006,12,12,15,24,7.90
2006,12,12,15,25,7.90
2006,12,12,15,26,7.90
2006,12,12,15,27,7.90
2006,12,12,15,28,7.90
2006,12,12,15,29,7.90
2006,12,12,15,30,7.90
2006,12,12,15,31,7.90
2006,12,12,15,32,7.90
2006,12,12,15,33,7.90
2006,12,12,15,34,7.80
2006,12,12,15,35,7.80
2006,12,12,15,36,7.80
2006,12,12,15,37,7.80
2006,12,12,15,38,7.80
2006,12,12,15,39,7.80
2006,12,12,15,40,7.80
2006,12,12,15,41,7.80
2006,12,12,15,42,7.80
2006,12,12,15,43,7.80
2006,12,12,15,44,7.80
2006,12,12,15,45,7.80
2006,12,12,15,46,7.80
2006,12,12,15,47,7.80
2006,12,12,15,48,7.80
2006,12,12,15,49,7.80
2006,12,12,15,50,7.80
2006,12,12,15,51,7.80
2006,12,12,15,52,7.80
2006,12,12,15,53,7.80
2006,12,12,15,54,7.80
2006,12,12,15,55,7.80
2006,12,12,15,56,7.80
2006,12,12,15,57,7.80
2006,12,12,15,58,7.70
2006,12,12,15,59,7.70
2006,12,12,16,00,7.70
2006,12,12,16,01,7.70
2006,12,12,16,02,7.70
2006,12,12,16,03,7.70
2006,12,12,16,04,7.70
2006,12,12,16,05,7.70
2006,12,12,16,06,7.70
2006,12,12,16,07,7.70
2006,12,12,16,08,7.70
2006,12,12,16,09,7.70
2006,12,12,16,10,7.70
2006,12,12,16,11,7.70
2006,12,12,16,12,7.70
2006,12,12,16,13,7.70
2006,12,12,16,14,7.70
2006,12,12,16,15,7.70
2006,12,12,16,16,7.70
2006,12,12,16,17,7.70
2006,12,12,16,18,7.70
2006,12,12,16,19,7.70
2006,12,12,16,20,7.70
2006,12,12,16,21,7.70
2006,12,12,16,22,7.70
2006,12,12,16,23,7.70
2006,12,12,16,24,7.70
2006,12,12,16,25,7.70
2006,12,12,16,26,7.70
2006,12,12,16,27,7.60
2006,12,12,16,28,7.60
2006,12,12,16,29,7.60
2006,12,12,16,30,7.60
2006,12,12,16,31,7.60
2006,12,12,16,32,7.60
2006,12,12,16,33,7.60
2006,12,12,16,34,7.60
2006,12,12,16,35,7.60
2006,12,12,16,36,7.60
2006,12,12,16,37,7.60
2006,12,12,16,38,7.60
2006,12,12,16,39,7.60
2006,12,12,16,40,7.60
2006,12,12,16,41,7.60
2006,12,12,16,42,7.60
2006,12,12,16,43,7.60
2006,12,12,16,44,7.60
2006,12,12,16,45,7.60
2006,12,12,16,46,7.60
2006,12,12,16,47,7.60
2006,12,12,16,48,7.60
2006,12,12,16,49,7.50
2006,12,12,16,50,7.50
2006,12,12,16,51,7.50
2006,12,12,16,52,7.50
2006,12,12,16,53,7.50
2006,12,12,16,54,7.50
2006,12,12,16,55,7.50
2006,12,12,16,56,7.50
2006,12,12,16,57,7.60
2006,12,12,16,58,7.50
2006,12,12,16,59,7.50
2006,12,12,17,00,7.50
2006,12,12,17,01,7.50
2006,12,12,17,02,7.50
2006,12,12,17,03,7.50
2006,12,12,17,04,7.50
2006,12,12,17,05,7.50
2006,12,12,17,06,7.50
2006,12,12,17,07,7.50
2006,12,12,17,08,7.50
2006,12,12,17,09,7.50
2006,12,12,17,10,7.50
2006,12,12,17,11,7.50
2006,12,12,17,12,7.50
2006,12,12,17,13,7.50
2006,12,12,17,14,7.60
2006,12,12,17,15,7.70
2006,12,12,17,16,7.70
2006,12,12,17,17,7.70
2006,12,12,17,18,7.80
2006,12,12,17,19,7.80
2006,12,12,17,20,7.80
2006,12,12,17,21,7.80
2006,12,12,17,22,7.80
2006,12,12,17,23,7.80
2006,12,12,17,24,7.80
2006,12,12,17,25,7.80
2006,12,12,17,26,7.80
2006,12,12,17,27,7.80
2006,12,12,17,28,7.90
2006,12,12,17,29,7.90
2006,12,12,17,30,7.90
2006,12,12,17,31,7.90
2006,12,12,17,32,7.90
2006,12,12,17,33,7.90
2006,12,12,17,34,8.00
2006,12,12,17,35,8.00
2006,12,12,17,36,8.00
2006,12,12,17,37,8.00
2006,12,12,17,38,8.00
2006,12,12,17,39,8.00
2006,12,12,17,40,8.00
2006,12,12,17,41,8.00
2006,12,12,17,42,8.00
2006,12,12,17,43,8.00
2006,12,12,17,44,8.10
2006,12,12,17,45,8.10
2006,12,12,17,46,8.10
2006,12,12,17,47,8.10
2006,12,12,17,48,8.10
2006,12,12,17,49,8.10
2006,12,12,17,50,8.10
2006,12,12,17,51,8.10
2006,12,12,17,52,8.10
2006,12,12,17,53,8.10
2006,12,12,17,54,8.10
2006,12,12,17,55,8.10
2006,12,12,17,56,8.10
2006,12,12,17,57,8.10
2006,12,12,17,58,8.10
2006,12,12,17,59,8.10
2006,12,12,18,00,8.10
2006,12,12,18,01,8.10
2006,12,12,18,02,8.10
2006,12,12,18,03,8.10
2006,12,12,18,04,8.10
2006,12,12,18,05,8.10
2006,12,12,18,06,8.10
2006,12,12,18,07,8.10
2006,12,12,18,08,8.20
2006,12,12,18,09,8.20
2006,12,12,18,10,8.20
2006,12,12,18,11,8.20
2006,12,12,18,12,8.20
2006,12,12,18,13,8.20
2006,12,12,18,14,8.20
2006,12,12,18,15,8.20
2006,12,12,18,16,8.20
2006,12,12,18,17,8.20
2006,12,12,18,18,8.20
2006,12,12,18,19,8.20
2006,12,12,18,20,8.20
2006,12,12,18,21,8.30
2006,12,12,18,22,8.30
2006,12,12,18,23,8.30
2006,12,12,18,24,8.30
2006,12,12,18,25,8.30
2006,12,12,18,26,8.30
2006,12,12,18,27,8.30
2006,12,12,18,28,8.30
2006,12,12,18,29,8.30
2006,12,12,18,30,8.30
2006,12,12,18,31,8.30
2006,12,12,18,32,8.30
2006,12,12,18,33,8.30
2006,12,12,18,34,8.30
2006,12,12,18,35,8.30
2006,12,12,18,36,8.30
2006,12,12,18,37,8.30
2006,12,12,18,38,8.30
2006,12,12,18,39,8.30
2006,12,12,18,40,8.30
2006,12,12,18,41,8.30
2006,12,12,18,42,8.30
2006,12,12,18,43,8.30
2006,12,12,18,44,8.30
2006,12,12,18,45,8.30
2006,12,12,18,46,8.30
2006,12,12,18,47,8.30
2006,12,12,18,48,8.30
2006,12,12,18,49,8.30
2006,12,12,18,50,8.40
2006,12,12,18,51,8.40
2006,12,12,18,52,8.40
2006,12,12,18,53,8.40
2006,12,12,18,54,8.40
2006,12,12,18,55,8.40
2006,12,12,18,56,8.40
2006,12,12,18,57,8.40
2006,12,12,18,58,8.40
2006,12,12,18,59,8.40
2006,12,12,19,00,8.40
2006,12,12,19,01,8.40
2006,12,12,19,02,8.40
2006,12,12,19,03,8.40
2006,12,12,19,04,8.40
2006,12,12,19,05,8.40
2006,12,12,19,06,8.40
2006,12,12,19,07,8.40
2006,12,12,19,08,8.40
2006,12,12,19,09,8.40
2006,12,12,19,10,8.40
2006,12,12,19,11,8.40
2006,12,12,19,12,8.40
2006,12,12,19,13,8.40
2006,12,12,19,14,8.40
2006,12,12,19,15,8.40
2006,12,12,19,16,8.40
2006,12,12,19,17,8.40
2006,12,12,19,18,8.40
2006,12,12,19,19,8.50
2006,12,12,19,20,8.50
2006,12,12,19,21,8.50
2006,12,12,19,22,8.50
2006,12,12,19,23,8.50
2006,12,12,19,24,8.50
2006,12,12,19,25,8.50
2006,12,12,19,26,8.50
2006,12,12,19,27,8.50
2006,12,12,19,28,8.50
2006,12,12,19,29,8.50
2006,12,12,19,30,8.50
2006,12,12,19,31,8.50
2006,12,12,19,32,8.50
2006,12,12,19,33,8.50
2006,12,12,19,34,8.50
2006,12,12,19,35,8.50
2006,12,12,19,36,8.50
2006,12,12,19,37,8.50
2006,12,12,19,38,8.50
2006,12,12,19,39,8.50
2006,12,12,19,40,8.50
2006,12,12,19,41,8.50
2006,12,12,19,42,8.50
2006,12,12,19,43,8.50
2006,12,12,19,44,8.50
2006,12,12,19,45,8.50
2006,12,12,19,46,8.50
2006,12,12,19,47,8.50
2006,12,12,19,48,8.50
2006,12,12,19,49,8.50
2006,12,12,19,50,8.50
2006,12,12,19,51,8.50
2006,12,12,19,52,8.50
2006,12,12,19,53,8.50
2006,12,12,19,54,8.60
2006,12,12,19,55,8.60
2006,12,12,19,56,8.60
2006,12,12,19,57,8.60
2006,12,12,19,58,8.60
2006,12,12,19,59,8.60
2006,12,12,20,00,8.60
2006,12,12,20,01,8.70
2006,12,12,20,02,8.70
2006,12,12,20,03,8.70
2006,12,12,20,04,8.70
2006,12,12,20,05,8.70
2006,12,12,20,06,8.70
2006,12,12,20,07,8.70
2006,12,12,20,08,8.70
2006,12,12,20,09,8.70
2006,12,12,20,10,8.70
2006,12,12,20,11,8.70
2006,12,12,20,12,8.70
2006,12,12,20,13,8.70
2006,12,12,20,14,8.60
2006,12,12,20,15,8.70
2006,12,12,20,16,8.60
2006,12,12,20,17,8.60
2006,12,12,20,18,8.60
2006,12,12,20,19,8.60
2006,12,12,20,20,8.60
2006,12,12,20,21,8.60
2006,12,12,20,22,8.60
2006,12,12,20,23,8.60
2006,12,12,20,24,8.60
2006,12,12,20,25,8.50
2006,12,12,20,26,8.50
2006,12,12,20,27,8.50
2006,12,12,20,28,8.50
2006,12,12,20,29,8.50
2006,12,12,20,30,8.50
2006,12,12,20,31,8.50
2006,12,12,20,32,8.50
2006,12,12,20,33,8.50
2006,12,12,20,34,8.50
2006,12,12,20,35,8.50
2006,12,12,20,36,8.40
2006,12,12,20,37,8.40
2006,12,12,20,38,8.40
2006,12,12,20,39,8.40
2006,12,12,20,40,8.40
2006,12,12,20,41,8.40
2006,12,12,20,42,8.40
2006,12,12,20,43,8.40
2006,12,12,20,44,8.40
2006,12,12,20,45,8.50
2006,12,12,20,46,8.40
2006,12,12,20,47,8.50
2006,12,12,20,48,8.40
2006,12,12,20,49,8.40
2006,12,12,20,50,8.40
2006,12,12,20,51,8.40
2006,12,12,20,52,8.40
2006,12,12,20,53,8.40
2006,12,12,20,54,8.40
2006,12,12,20,55,8.40
2006,12,12,20,56,8.40
2006,12,12,20,57,8.40
2006,12,12,20,58,8.40
2006,12,12,20,59,8.40
2006,12,12,21,00,8.30
2006,12,12,21,01,8.30
2006,12,12,21,02,8.30
2006,12,12,21,03,8.40
2006,12,12,21,04,8.40
2006,12,12,21,05,8.40
2006,12,12,21,06,8.40
2006,12,12,21,07,8.30
2006,12,12,21,08,8.30
2006,12,12,21,09,8.30
2006,12,12,21,10,8.30
2006,12,12,21,11,8.30
2006,12,12,21,12,8.30
2006,12,12,21,13,8.30
2006,12,12,21,14,8.30
2006,12,12,21,15,8.30
2006,12,12,21,16,8.30
2006,12,12,21,17,8.30
2006,12,12,21,18,8.30
2006,12,12,21,19,8.30
2006,12,12,21,20,8.30
2006,12,12,21,21,8.30
2006,12,12,21,22,8.30
2006,12,12,21,23,8.30
2006,12,12,21,24,8.30
2006,12,12,21,25,8.20
2006,12,12,21,26,8.20
2006,12,12,21,27,8.20
2006,12,12,21,28,8.20
2006,12,12,21,29,8.20
2006,12,12,21,30,8.10
2006,12,12,21,31,8.10
2006,12,12,21,32,8.10
2006,12,12,21,33,8.00
2006,12,12,21,34,8.00
2006,12,12,21,35,8.00
2006,12,12,21,36,7.90
2006,12,12,21,37,7.90
2006,12,12,21,38,7.90
2006,12,12,21,39,7.90
2006,12,12,21,40,7.80
2006,12,12,21,41,7.80
2006,12,12,21,42,7.80
2006,12,12,21,43,7.80
2006,12,12,21,44,7.80
2006,12,12,21,45,7.80
2006,12,12,21,46,7.70
2006,12,12,21,47,7.70
2006,12,12,21,48,7.70
2006,12,12,21,49,7.60
2006,12,12,21,50,7.60
2006,12,12,21,51,7.60
2006,12,12,21,52,7.60
2006,12,12,21,53,7.60
2006,12,12,21,54,7.60
2006,12,12,21,55,7.50
2006,12,12,21,56,7.50
2006,12,12,21,57,7.50
2006,12,12,21,58,7.50
2006,12,12,21,59,7.50
2006,12,12,22,00,7.40
2006,12,12,22,01,7.40
2006,12,12,22,02,7.40
2006,12,12,22,03,7.40
2006,12,12,22,04,7.40
2006,12,12,22,05,7.40
2006,12,12,22,06,7.40
2006,12,12,22,07,7.40
2006,12,12,22,08,7.40
2006,12,12,22,09,7.40
2006,12,12,22,10,7.40
2006,12,12,22,11,7.40
2006,12,12,22,12,7.40
2006,12,12,22,13,7.40
2006,12,12,22,14,7.40
2006,12,12,22,15,7.40
2006,12,12,22,16,7.30
2006,12,12,22,17,7.30
2006,12,12,22,18,7.30
2006,12,12,22,19,7.40
2006,12,12,22,20,7.30
2006,12,12,22,21,7.30
2006,12,12,22,22,7.30
2006,12,12,22,23,7.20
2006,12,12,22,24,7.20
2006,12,12,22,25,7.20
2006,12,12,22,26,7.20
2006,12,12,22,27,7.20
2006,12,12,22,28,7.20
2006,12,12,22,29,7.30
2006,12,12,22,30,7.30
2006,12,12,22,31,7.30
2006,12,12,22,32,7.20
2006,12,12,22,33,7.20
2006,12,12,22,34,7.20
2006,12,12,22,35,7.20
2006,12,12,22,36,7.20
2006,12,12,22,37,7.20
2006,12,12,22,38,7.20
2006,12,12,22,39,7.20
2006,12,12,22,40,7.20
2006,12,12,22,41,7.20
2006,12,12,22,42,7.20
2006,12,12,22,43,7.20
2006,12,12,22,44,7.20
2006,12,12,22,45,7.20
2006,12,12,22,46,7.20
2006,12,12,22,47,7.20
2006,12,12,22,48,7.20
2006,12,12,22,49,7.20
2006,12,12,22,50,7.20
2006,12,12,22,51,7.20
2006,12,12,22,52,7.20
2006,12,12,22,53,7.20
2006,12,12,22,54,7.20
2006,12,12,22,55,7.20
2006,12,12,22,56,7.30
2006,12,12,22,57,7.30
2006,12,12,22,58,7.20
2006,12,12,22,59,7.30
2006,12,12,23,00,7.30
2006,12,12,23,01,7.30
2006,12,12,23,02,7.30
2006,12,12,23,03,7.30
2006,12,12,23,04,7.30
2006,12,12,23,05,7.30
2006,12,12,23,06,7.30
2006,12,12,23,07,7.30
2006,12,12,23,08,7.30
2006,12,12,23,09,7.30
2006,12,12,23,10,7.30
2006,12,12,23,11,7.30
2006,12,12,23,12,7.20
2006,12,12,23,13,7.20
2006,12,12,23,14,7.20
2006,12,12,23,15,7.20
2006,12,12,23,16,7.20
2006,12,12,23,17,7.20
2006,12,12,23,18,7.20
2006,12,12,23,19,7.20
2006,12,12,23,20,7.20
2006,12,12,23,21,7.20
2006,12,12,23,22,7.20
2006,12,12,23,23,7.20
2006,12,12,23,24,7.20
2006,12,12,23,25,7.10
2006,12,12,23,26,7.10
2006,12,12,23,27,7.10
2006,12,12,23,28,7.10
2006,12,12,23,29,7.10
2006,12,12,23,30,7.10
2006,12,12,23,31,7.20
2006,12,12,23,32,7.20
2006,12,12,23,33,7.20
2006,12,12,23,34,7.20
2006,12,12,23,35,7.20
2006,12,12,23,36,7.20
2006,12,12,23,37,7.20
2006,12,12,23,38,7.20
2006,12,12,23,39,7.20
2006,12,12,23,40,7.20
2006,12,12,23,41,7.20
2006,12,12,23,42,7.20
2006,12,12,23,43,7.20
2006,12,12,23,44,7.20
2006,12,12,23,45,7.20
2006,12,12,23,46,7.20
2006,12,12,23,47,7.20
2006,12,12,23,48,7.20
2006,12,12,23,49,7.20
2006,12,12,23,50,7.20
2006,12,12,23,51,7.20
2006,12,12,23,52,7.20
2006,12,12,23,53,7.20
2006,12,12,23,54,7.20
2006,12,12,23,55,7.20
2006,12,12,23,56,7.20
2006,12,12,23,57,7.20
2006,12,12,23,58,7.20
2006,12,12,23,59,7.20
